Time,TemperatureF,DewpointF,PressureIn,WindDirection,WindDirectionDegrees,WindSpeedMPH,WindSpeedGustMPH,Humidity,HourlyPrecipIn,Conditions,Clouds,dailyrainin,SoftwareType,DateUTC
2013-08-05 00:13:00,54.5,53.0,29.99,SW,223,7.0,12.0,94,0.00,,,0.00,weatherlink.com 1.10,2013-08-05 07:13:00,
2013-08-05 00:28:00,54.5,53.0,29.99,West,265,11.0,16.0,94,0.00,,,0.00,weatherlink.com 1.10,2013-08-05 07:28:00,
2013-08-05 00:43:00,54.3,53.0,29.99,South,190,6.0,13.0,94,0.00,,,0.00,weatherlink.com 1.10,2013-08-05 07:43:00,
2013-08-05 00:58:00,54.5,53.0,29.99,WSW,238,5.0,13.0,94,0.00,,,0.00,weatherlink.com 1.10,2013-08-05 07:58:00,
2013-08-05 01:13:00,54.7,53.0,29.99,SSW,195,5.0,12.0,94,0.00,,,0.00,weatherlink.com 1.10,2013-08-05 08:13:00,
2013-08-05 01:28:00,54.6,53.0,29.98,SW,232,7.0,12.0,94,0.00,,,0.00,weatherlink.com 1.10,2013-08-05 08:28:00,
2013-08-05 01:43:00,54.6,53.0,29.99,South,179,9.0,10.0,95,0.00,,,0.00,weatherlink.com 1.10,2013-08-05 08:43:00,
2013-08-05 02:13:00,54.5,53.0,29.98,WSW,242,8.0,12.0,95,0.00,,,0.00,weatherlink.com 1.10,2013-08-05 09:13:00,
2013-08-05 02:28:00,54.6,53.0,29.98,SSW,203,8.0,10.0,95,0.00,,,0.00,weatherlink.com 1.10,2013-08-05 09:28:00,
2013-08-05 02:59:00,54.5,53.0,29.98,SSW,207,5.0,11.0,95,0.00,,,0.00,weatherlink.com 1.10,2013-08-05 09:59:00,
2013-08-05 03:14:00,54.3,53.0,29.98,SSW,212,5.0,10.0,95,0.00,,,0.00,weatherlink.com 1.10,2013-08-05 10:14:00,
2013-08-05 03:29:00,54.1,53.0,29.98,WSW,249,5.0,12.0,95,0.00,,,0.00,weatherlink.com 1.10,2013-08-05 10:29:00,
2013-08-05 03:44:00,54.0,53.0,29.98,SW,225,9.0,12.0,95,0.00,,,0.00,weatherlink.com 1.10,2013-08-05 10:44:00,
2013-08-05 03:59:00,54.0,53.0,29.98,SSW,197,5.0,10.0,95,0.00,,,0.00,weatherlink.com 1.10,2013-08-05 10:59:00,
2013-08-05 04:14:00,54.2,53.0,29.98,SW,228,7.0,10.0,95,0.00,,,0.00,weatherlink.com 1.10,2013-08-05 11:14:00,
2013-08-05 04:29:00,54.2,53.0,29.98,SW,227,3.0,10.0,95,0.00,,,0.00,weatherlink.com 1.10,2013-08-05 11:29:00,
2013-08-05 04:44:00,53.9,53.0,29.98,SE,141,7.0,8.0,95,0.00,,,0.00,weatherlink.com 1.10,2013-08-05 11:44:00,
2013-08-05 04:59:00,53.6,52.0,29.98,WSW,248,3.0,12.0,95,0.00,,,0.00,weatherlink.com 1.10,2013-08-05 11:59:00,
2013-08-05 05:59:00,53.9,53.0,29.99,WSW,251,4.0,11.0,95,0.00,,,0.00,weatherlink.com 1.10,2013-08-05 12:59:00,
2013-08-05 06:14:00,54.1,53.0,29.99,South,179,3.0,8.0,95,0.00,,,0.00,weatherlink.com 1.10,2013-08-05 13:14:00,
2013-08-05 06:44:00,54.2,53.0,29.99,SW,214,7.0,9.0,95,0.00,,,0.00,weatherlink.com 1.10,2013-08-05 13:44:00,
2013-08-05 06:59:00,54.2,53.0,30.00,South,175,3.0,10.0,95,0.00,,,0.00,weatherlink.com 1.10,2013-08-05 13:59:00,
2013-08-05 07:14:00,54.4,53.0,30.00,SW,228,6.0,7.0,95,0.00,,,0.00,weatherlink.com 1.10,2013-08-05 14:14:00,
2013-08-05 07:44:00,54.6,53.0,30.00,SW,229,5.0,10.0,95,0.00,,,0.00,weatherlink.com 1.10,2013-08-05 14:44:00,
2013-08-05 08:14:00,54.8,53.0,30.00,South,181,2.0,11.0,95,0.00,,,0.00,weatherlink.com 1.10,2013-08-05 15:14:00,
2013-08-05 08:44:00,54.6,53.0,30.00,SSW,201,6.0,9.0,95,0.00,,,0.00,weatherlink.com 1.10,2013-08-05 15:44:00,
2013-08-05 08:59:00,54.7,53.0,30.01,WSW,238,4.0,10.0,94,0.00,,,0.00,weatherlink.com 1.10,2013-08-05 15:59:00,
2013-08-05 09:14:00,54.9,53.0,30.01,SW,215,4.0,12.0,93,0.00,,,0.00,weatherlink.com 1.10,2013-08-05 16:14:00,
2013-08-05 09:29:00,55.1,53.0,30.01,SW,221,7.0,12.0,92,0.00,,,0.00,weatherlink.com 1.10,2013-08-05 16:29:00,
2013-08-05 09:59:00,55.3,53.0,30.02,ESE,113,8.0,11.0,91,0.00,,,0.00,weatherlink.com 1.10,2013-08-05 16:59:00,
2013-08-05 10:14:00,55.0,53.0,30.02,South,176,4.0,13.0,92,0.00,,,0.00,weatherlink.com 1.10,2013-08-05 17:14:00,
2013-08-05 10:30:00,55.1,53.0,30.02,SSE,147,6.0,10.0,92,0.00,,,0.00,weatherlink.com 1.10,2013-08-05 17:30:00,
2013-08-05 10:44:00,55.3,53.0,30.02,SSE,156,5.0,11.0,92,0.00,,,0.00,weatherlink.com 1.10,2013-08-05 17:44:00,
2013-08-05 10:59:00,55.5,53.0,30.02,SW,221,11.0,13.0,91,0.00,,,0.00,weatherlink.com 1.10,2013-08-05 17:59:00,
2013-08-05 11:14:00,55.7,53.0,30.01,SSW,210,10.0,11.0,90,0.00,,,0.00,weatherlink.com 1.10,2013-08-05 18:14:00,
2013-08-05 11:29:00,55.9,53.0,30.02,SW,214,7.0,14.0,90,0.00,,,0.00,weatherlink.com 1.10,2013-08-05 18:29:00,
2013-08-05 11:44:00,56.3,53.0,30.02,SSE,148,7.0,13.0,89,0.00,,,0.00,weatherlink.com 1.10,2013-08-05 18:44:00,
2013-08-05 12:14:00,57.4,54.0,30.01,SSE,161,6.0,15.0,88,0.00,,,0.00,weatherlink.com 1.10,2013-08-05 19:14:00,
2013-08-05 12:29:00,57.6,54.0,30.01,SSW,203,12.0,13.0,88,0.00,,,0.00,weatherlink.com 1.10,2013-08-05 19:29:00,
2013-08-05 12:44:00,58.5,54.0,30.01,WSW,251,8.0,15.0,86,0.00,,,0.00,weatherlink.com 1.10,2013-08-05 19:44:00,
2013-08-05 12:59:00,59.1,54.0,30.01,SSW,203,9.0,14.0,84,0.00,,,0.00,weatherlink.com 1.10,2013-08-05 19:59:00,
2013-08-05 13:29:00,59.0,54.0,30.00,SW,235,10.0,16.0,83,0.00,,,0.00,weatherlink.com 1.10,2013-08-05 20:29:00,
2013-08-05 14:15:00,59.7,55.0,30.00,South,172,6.0,16.0,83,0.00,,,0.00,weatherlink.com 1.10,2013-08-05 21:15:00,
2013-08-05 14:30:00,59.6,54.0,29.99,WSW,245,9.0,18.0,83,0.00,,,0.00,weatherlink.com 1.10,2013-08-05 21:30:00,
2013-08-05 14:45:00,60.5,55.0,29.99,South,177,8.0,19.0,81,0.00,,,0.00,weatherlink.com 1.10,2013-08-05 21:45:00,
2013-08-05 15:30:00,59.3,55.0,29.98,South,172,10.0,18.0,84,0.00,,,0.00,weatherlink.com 1.10,2013-08-05 22:30:00,
2013-08-05 15:45:00,59.1,54.0,29.98,SW,229,10.0,16.0,83,0.00,,,0.00,weatherlink.com 1.10,2013-08-05 22:45:00,
2013-08-05 16:00:00,59.0,54.0,29.97,SSW,193,10.0,19.0,84,0.00,,,0.00,weatherlink.com 1.10,2013-08-05 23:00:00,
2013-08-05 16:15:00,59.2,54.0,29.96,SSW,212,11.0,22.0,82,0.00,,,0.00,weatherlink.com 1.10,2013-08-05 23:15:00,
2013-08-05 16:30:00,59.3,54.0,29.96,SSW,201,12.0,20.0,82,0.00,,,0.00,weatherlink.com 1.10,2013-08-05 23:30:00,
2013-08-05 16:45:00,59.3,54.0,29.96,SSE,167,8.0,19.0,82,0.00,,,0.00,weatherlink.com 1.10,2013-08-05 23:45:00,
2013-08-05 17:15:00,57.9,54.0,29.95,SSE,165,7.0,23.0,85,0.00,,,0.00,weatherlink.com 1.10,2013-08-06 00:15:00,
2013-08-05 17:30:00,56.8,53.0,29.94,SSW,195,14.0,22.0,87,0.00,,,0.00,weatherlink.com 1.10,2013-08-06 00:30:00,
2013-08-05 17:45:00,56.7,53.0,29.94,West,264,10.0,20.0,88,0.00,,,0.00,weatherlink.com 1.10,2013-08-06 00:45:00,
2013-08-05 18:00:00,56.2,53.0,29.94,SE,129,8.0,19.0,89,0.00,,,0.00,weatherlink.com 1.10,2013-08-06 01:00:00,
2013-08-05 18:15:00,55.4,53.0,29.94,WSW,252,8.0,19.0,90,0.00,,,0.00,weatherlink.com 1.10,2013-08-06 01:15:00,
2013-08-05 18:30:00,55.5,53.0,29.94,SSE,164,11.0,19.0,90,0.00,,,0.00,weatherlink.com 1.10,2013-08-06 01:30:00,
2013-08-05 19:00:00,54.9,52.0,29.94,SE,126,9.0,18.0,91,0.00,,,0.00,weatherlink.com 1.10,2013-08-06 02:00:00,
2013-08-05 19:15:00,54.5,52.0,29.94,South,173,5.0,17.0,91,0.00,,,0.00,weatherlink.com 1.10,2013-08-06 02:15:00,
2013-08-05 19:30:00,54.2,52.0,29.95,South,187,9.0,18.0,92,0.00,,,0.00,weatherlink.com 1.10,2013-08-06 02:30:00,
2013-08-05 19:45:00,53.8,52.0,29.95,SSW,194,8.0,18.0,93,0.00,,,0.00,weatherlink.com 1.10,2013-08-06 02:45:00,
2013-08-05 20:15:00,53.5,52.0,29.95,SSW,192,7.0,19.0,94,0.00,,,0.00,weatherlink.com 1.10,2013-08-06 03:15:00,
2013-08-05 20:30:00,53.6,52.0,29.95,SSE,167,8.0,15.0,94,0.00,,,0.00,weatherlink.com 1.10,2013-08-06 03:30:00,
2013-08-05 20:45:00,53.6,52.0,29.95,SW,223,7.0,15.0,94,0.00,,,0.00,weatherlink.com 1.10,2013-08-06 03:45:00,
2013-08-05 21:00:00,53.6,52.0,29.96,South,186,3.0,14.0,94,0.00,,,0.00,weatherlink.com 1.10,2013-08-06 04:00:00,
2013-08-05 21:15:00,53.7,52.0,29.96,SE,142,5.0,14.0,94,0.00,,,0.00,weatherlink.com 1.10,2013-08-06 04:15:00,
2013-08-05 21:30:00,53.7,52.0,29.97,ESE,106,4.0,10.0,94,0.00,,,0.00,weatherlink.com 1.10,2013-08-06 04:30:00,
2013-08-05 21:45:00,53.8,52.0,29.97,SSW,207,6.0,15.0,94,0.00,,,0.00,weatherlink.com 1.10,2013-08-06 04:45:00,
2013-08-05 22:00:00,53.9,52.0,29.97,SW,218,8.0,13.0,94,0.00,,,0.00,weatherlink.com 1.10,2013-08-06 05:00:00,
2013-08-05 22:15:00,54.1,53.0,29.97,SSE,155,5.0,12.0,94,0.00,,,0.00,weatherlink.com 1.10,2013-08-06 05:15:00,
2013-08-05 22:30:00,53.9,52.0,29.97,SSW,193,5.0,10.0,94,0.00,,,0.00,weatherlink.com 1.10,2013-08-06 05:30:00,
2013-08-05 22:45:00,53.7,52.0,29.97,SSW,193,4.0,10.0,94,0.00,,,0.00,weatherlink.com 1.10,2013-08-06 05:45:00,
2013-08-05 23:00:00,53.9,52.0,29.97,SW,236,2.0,6.0,94,0.00,,,0.00,weatherlink.com 1.10,2013-08-06 06:00:00,
2013-08-05 23:15:00,53.8,52.0,29.97,WSW,256,5.0,8.0,93,0.00,,,0.00,weatherlink.com 1.10,2013-08-06 06:15:00,
2013-08-05 23:30:00,53.7,52.0,29.97,SSW,206,4.0,6.0,93,0.00,,,0.00,weatherlink.com 1.10,2013-08-06 06:30:00,
2013-08-05 23:45:00,53.7,52.0,29.98,SW,226,4.0,6.0,93,0.00,,,0.00,weatherlink.com 1.10,2013-08-06 06:45:00,